Radiation Dose at Monitoring Post of Fukushima Daini Nuclear Power Station
Date,Time,MP-1(microSv/h),MP-2(microSv/h),MP-3(microSv/h),MP-4(microSv/h),MP-5(microSv/h),MP-6(microSv/h),MP-7(microSv/h),Wind Direction,Wind Velocity(m/s),Rain
2017/03/22,00:00,0.374,0.229,0.380,0.352,0.328,0.189,0.158,north,9.2,No
2017/03/22,00:10,0.375,0.229,0.382,0.352,0.327,0.188,0.159,north,9.1,No
2017/03/22,00:20,0.375,0.228,0.381,0.351,0.326,0.187,0.158,north,9.2,No
2017/03/22,00:30,0.374,0.228,0.381,0.353,0.328,0.188,0.157,north,8.3,No
2017/03/22,00:40,0.375,0.228,0.382,0.351,0.327,0.187,0.158,north,8.4,No
2017/03/22,00:50,0.375,0.228,0.381,0.352,0.327,0.188,0.158,north,7.5,No
2017/03/22,01:00,0.375,0.228,0.382,0.353,0.329,0.186,0.157,north,8.4,No
2017/03/22,01:10,0.373,0.228,0.382,0.352,0.327,0.188,0.157,north,8.1,No
2017/03/22,01:20,0.373,0.228,0.381,0.353,0.326,0.188,0.157,north,9.5,No
2017/03/22,01:30,0.376,0.226,0.383,0.351,0.327,0.187,0.158,north,8.0,No
2017/03/22,01:40,0.375,0.227,0.382,0.352,0.326,0.186,0.158,north,9.0,No
2017/03/22,01:50,0.375,0.226,0.383,0.352,0.327,0.187,0.157,north,9.8,No
2017/03/22,02:00,0.375,0.228,0.382,0.353,0.326,0.187,0.158,north,8.3,No
2017/03/22,02:10,0.375,0.228,0.381,0.354,0.327,0.186,0.157,north,7.3,No
2017/03/22,02:20,0.376,0.227,0.384,0.353,0.328,0.187,0.158,north,7.5,No
2017/03/22,02:30,0.374,0.227,0.381,0.351,0.326,0.187,0.157,north,8.6,No
2017/03/22,02:40,0.376,0.227,0.381,0.352,0.326,0.188,0.158,north,8.3,No
2017/03/22,02:50,0.374,0.227,0.383,0.352,0.327,0.187,0.157,north-northwest,7.8,No
2017/03/22,03:00,0.374,0.228,0.382,0.351,0.328,0.188,0.158,north-northwest,9.1,No
2017/03/22,03:10,0.375,0.227,0.383,0.352,0.326,0.187,0.157,north-northwest,7.3,No
2017/03/22,03:20,0.376,0.227,0.381,0.354,0.326,0.187,0.158,north-northwest,11.9,No
2017/03/22,03:30,0.375,0.228,0.382,0.353,0.326,0.188,0.157,north-northwest,11.5,No
2017/03/22,03:40,0.375,0.227,0.384,0.352,0.328,0.188,0.157,north-northwest,11.0,No
2017/03/22,03:50,0.375,0.228,0.382,0.352,0.327,0.187,0.157,north-northwest,12.0,No
2017/03/22,04:00,0.376,0.228,0.384,0.354,0.326,0.187,0.157,north-northwest,10.7,No
2017/03/22,04:10,0.376,0.226,0.385,0.353,0.328,0.189,0.158,north-northwest,14.2,No
2017/03/22,04:20,0.378,0.228,0.384,0.353,0.328,0.187,0.158,north-northwest,12.2,No
2017/03/22,04:30,0.376,0.229,0.382,0.353,0.328,0.188,0.157,north,11.9,No
2017/03/22,04:40,0.377,0.228,0.383,0.353,0.328,0.188,0.158,north,12.2,No
2017/03/22,04:50,0.377,0.227,0.384,0.354,0.328,0.188,0.158,north-northwest,10.7,No
2017/03/22,05:00,0.378,0.228,0.385,0.353,0.327,0.188,0.157,north,11.7,No
2017/03/22,05:10,0.378,0.229,0.383,0.354,0.328,0.188,0.157,north-northwest,11.5,No
2017/03/22,05:20,0.377,0.229,0.385,0.352,0.327,0.189,0.157,north-northwest,12.4,No
2017/03/22,05:30,0.378,0.228,0.384,0.354,0.327,0.188,0.159,north-northwest,12.5,No
2017/03/22,05:40,0.378,0.229,0.385,0.353,0.328,0.188,0.158,north-northwest,12.9,No
2017/03/22,05:50,0.376,0.228,0.384,0.353,0.328,0.187,0.157,north-northwest,11.6,No
2017/03/22,06:00,0.377,0.227,0.385,0.354,0.329,0.188,0.158,north-northwest,13.4,No
2017/03/22,06:10,0.379,0.228,0.384,0.355,0.327,0.189,0.158,north,12.4,No
2017/03/22,06:20,0.378,0.228,0.384,0.354,0.328,0.188,0.157,north,11.4,No
2017/03/22,06:30,0.378,0.228,0.384,0.355,0.329,0.189,0.157,north,12.8,No
2017/03/22,06:40,0.376,0.229,0.386,0.355,0.328,0.187,0.157,north,12.6,No
2017/03/22,06:50,0.377,0.228,0.386,0.355,0.328,0.189,0.158,north,12.9,No
2017/03/22,07:00,0.378,0.229,0.385,0.354,0.327,0.187,0.158,north,10.4,No
2017/03/22,07:10,0.379,0.228,0.386,0.354,0.328,0.190,0.158,north,10.4,No
2017/03/22,07:20,0.377,0.229,0.385,0.354,0.329,0.189,0.158,north-northwest,8.7,No
2017/03/22,07:30,0.378,0.229,0.385,0.355,0.327,0.188,0.157,north-northwest,11.5,No
2017/03/22,07:40,0.378,0.229,0.386,0.353,0.327,0.188,0.157,northwest,9.2,No
2017/03/22,07:50,0.376,0.229,0.385,0.354,0.327,0.189,0.158,north-northwest,9.0,No
2017/03/22,08:00,0.379,0.228,0.385,0.354,0.328,0.189,0.157,north-northwest,10.8,No
2017/03/22,08:10,0.379,0.229,0.387,0.352,0.330,0.189,0.157,north,8.1,No
2017/03/22,08:20,0.379,0.228,0.383,0.355,0.328,0.188,0.158,north-northwest,12.8,No
2017/03/22,08:30,0.378,0.229,0.385,0.355,0.327,0.188,0.158,north,10.8,No
2017/03/22,08:40,0.378,0.228,0.385,0.354,0.329,0.189,0.158,north,11.8,No
2017/03/22,08:50,0.378,0.227,0.385,0.356,0.329,0.188,0.158,north,11.9,No
2017/03/22,09:00,0.379,0.228,0.386,0.353,0.327,0.189,0.158,north-northwest,14.6,No
2017/03/22,09:10,0.377,0.228,0.385,0.355,0.328,0.188,0.158,north-northwest,12.2,No
2017/03/22,09:20,0.378,0.229,0.387,0.354,0.329,0.189,0.159,north,11.6,No
2017/03/22,09:30,0.381,0.229,0.387,0.356,0.328,0.189,0.159,north-northwest,13.5,No
2017/03/22,09:40,0.379,0.229,0.386,0.353,0.330,0.187,0.159,north-northwest,13.7,No
2017/03/22,09:50,0.379,0.230,0.386,0.357,0.327,0.187,0.159,north-northwest,14.9,No
2017/03/22,10:00,0.378,0.230,0.386,0.354,0.330,0.187,0.158,north-northwest,12.4,No
2017/03/22,10:10,0.377,0.229,0.385,0.356,0.327,0.189,0.159,north-northwest,10.3,No
2017/03/22,10:20,0.379,0.230,0.385,0.354,0.329,0.189,0.158,northwest,8.7,No
2017/03/22,10:30,0.378,0.229,0.388,0.357,0.331,0.189,0.159,north-northwest,10.0,No
2017/03/22,10:40,0.381,0.229,0.387,0.355,0.328,0.189,0.158,northwest,9.8,No
2017/03/22,10:50,0.378,0.230,0.386,0.357,0.329,0.189,0.159,north-northwest,9.6,No
2017/03/22,11:00,0.381,0.229,0.387,0.354,0.329,0.190,0.159,north-northwest,11.9,No
2017/03/22,11:10,0.378,0.230,0.385,0.359,0.328,0.188,0.159,north-northwest,10.7,No
2017/03/22,11:20,0.379,0.230,0.387,0.354,0.330,0.190,0.160,northwest,9.0,No
2017/03/22,11:30,0.381,0.228,0.386,0.359,0.327,0.189,0.159,north-northwest,8.8,No
2017/03/22,11:40,0.378,0.230,0.387,0.354,0.330,0.189,0.161,northwest,7.9,No
2017/03/22,11:50,0.381,0.230,0.386,0.358,0.328,0.191,0.159,northwest,7.3,No
2017/03/22,12:00,0.379,0.232,0.387,0.355,0.331,0.190,0.159,north-northwest,10.2,No
2017/03/22,12:10,0.381,0.228,0.385,0.358,0.329,0.189,0.160,north-northwest,12.2,No
2017/03/22,12:20,0.380,0.229,0.386,0.356,0.329,0.190,0.160,north-northwest,11.2,No
2017/03/22,12:30,0.381,0.232,0.388,0.357,0.330,0.189,0.160,north-northwest,8.7,No
2017/03/22,12:40,0.381,0.230,0.385,0.356,0.328,0.189,0.160,north-northwest,11.0,No
2017/03/22,12:50,0.380,0.231,0.387,0.357,0.331,0.190,0.160,north-northwest,11.4,No
2017/03/22,13:00,0.380,0.228,0.385,0.358,0.330,0.190,0.160,north-northwest,9.5,No
2017/03/22,13:10,0.380,0.231,0.388,0.356,0.331,0.190,0.162,northwest,9.1,No
2017/03/22,13:20,0.382,0.230,0.386,0.360,0.328,0.190,0.160,north-northwest,12.6,No
2017/03/22,13:30,0.381,0.230,0.389,0.355,0.330,0.190,0.161,north-northwest,12.9,No
2017/03/22,13:40,0.381,0.230,0.387,0.360,0.328,0.190,0.159,north-northwest,12.2,No
2017/03/22,13:50,0.380,0.229,0.389,0.357,0.331,0.190,0.161,north-northwest,11.9,No
2017/03/22,14:00,0.382,0.231,0.388,0.357,0.329,0.190,0.160,northwest,9.5,No
2017/03/22,14:10,0.382,0.231,0.389,0.360,0.333,0.191,0.161,north-northwest,7.0,No
2017/03/22,14:20,0.383,0.230,0.387,0.358,0.329,0.189,0.160,north,9.8,No
2017/03/22,14:30,0.381,0.231,0.391,0.360,0.333,0.192,0.161,north-northwest,8.7,No
2017/03/22,14:40,0.382,0.230,0.387,0.357,0.328,0.190,0.161,north,10.7,No
2017/03/22,14:50,0.384,0.231,0.389,0.360,0.332,0.191,0.162,north-northwest,7.8,No
2017/03/22,15:00,0.380,0.230,0.388,0.358,0.328,0.190,0.160,north-northwest,9.0,No
2017/03/22,15:10,0.383,0.231,0.389,0.360,0.331,0.190,0.161,north-northwest,8.3,No
2017/03/22,15:20,0.381,0.231,0.390,0.360,0.328,0.190,0.160,north-northwest,7.5,No
2017/03/22,15:30,0.382,0.230,0.389,0.359,0.332,0.191,0.161,north-northwest,3.5,No
2017/03/22,15:40,0.383,0.231,0.391,0.361,0.332,0.190,0.161,northwest,3.0,No
2017/03/22,15:50,0.380,0.233,0.391,0.360,0.330,0.190,0.162,northwest,1.2,No
2017/03/22,16:00,0.384,0.231,0.389,0.359,0.334,0.191,0.161,north-northwest,2.2,No
2017/03/22,16:10,0.382,0.231,0.391,0.361,0.331,0.190,0.162,northwest,5.8,No
2017/03/22,16:20,0.382,0.230,0.392,0.358,0.330,0.191,0.160,west-northwest,4.5,No
2017/03/22,16:30,0.383,0.231,0.390,0.361,0.331,0.190,0.161,northwest,2.5,No
2017/03/22,16:40,0.382,0.230,0.390,0.361,0.329,0.190,0.160,west-northwest,2.3,No
2017/03/22,16:50,0.383,0.232,0.391,0.359,0.331,0.191,0.162,north-northwest,1.9,No
2017/03/22,17:00,0.383,0.231,0.389,0.360,0.330,0.190,0.161,north-northwest,3.0,No
2017/03/22,17:10,0.383,0.230,0.390,0.361,0.331,0.191,0.161,north-northwest,2.6,No
2017/03/22,17:20,0.382,0.230,0.390,0.361,0.332,0.191,0.161,north-northwest,2.4,No
2017/03/22,17:30,0.383,0.232,0.390,0.360,0.330,0.192,0.162,north,2.4,No
2017/03/22,17:40,0.382,0.232,0.390,0.363,0.331,0.191,0.161,north-northwest,1.0,No
2017/03/22,17:50,0.382,0.231,0.390,0.360,0.333,0.191,0.162,north-northwest,2.7,No
2017/03/22,18:00,0.383,0.231,0.390,0.359,0.333,0.191,0.161,west-northwest,1.6,No
2017/03/22,18:10,0.384,0.232,0.390,0.360,0.330,0.190,0.160,west-northwest,2.7,No
2017/03/22,18:20,0.383,0.231,0.391,0.360,0.331,0.190,0.162,west-northwest,3.4,No
2017/03/22,18:30,0.383,0.231,0.392,0.359,0.332,0.191,0.161,west,5.9,No
2017/03/22,18:40,0.383,0.231,0.391,0.360,0.330,0.191,0.162,west,5.3,No
2017/03/22,18:50,0.384,0.231,0.390,0.360,0.330,0.192,0.161,west,5.9,No
2017/03/22,19:00,0.382,0.232,0.392,0.361,0.333,0.191,0.162,west-northwest,6.3,No
2017/03/22,19:10,0.385,0.231,0.390,0.359,0.332,0.192,0.161,west,8.8,No
2017/03/22,19:20,0.382,0.230,0.391,0.360,0.331,0.192,0.162,west-northwest,7.2,No
2017/03/22,19:30,0.383,0.229,0.390,0.360,0.330,0.191,0.161,west,6.9,No
2017/03/22,19:40,0.383,0.231,0.393,0.359,0.333,0.191,0.162,west,5.8,No
2017/03/22,19:50,0.381,0.231,0.391,0.360,0.332,0.191,0.161,west-northwest,6.2,No
2017/03/22,20:00,0.382,0.231,0.391,0.361,0.331,0.191,0.161,west-northwest,7.1,No
2017/03/22,20:10,0.382,0.232,0.392,0.360,0.331,0.191,0.161,west-northwest,8.1,No
2017/03/22,20:20,0.383,0.230,0.391,0.361,0.332,0.191,0.161,west,5.8,No
2017/03/22,20:30,0.382,0.231,0.391,0.361,0.330,0.191,0.161,west-northwest,5.6,No
2017/03/22,20:40,0.384,0.231,0.391,0.360,0.328,0.191,0.162,northwest,4.1,No
2017/03/22,20:50,0.383,0.232,0.389,0.359,0.330,0.191,0.162,northwest,4.6,No
2017/03/22,21:00,0.386,0.231,0.392,0.361,0.329,0.191,0.162,north-northwest,4.0,No
2017/03/22,21:10,0.383,0.231,0.390,0.359,0.330,0.191,0.161,north-northwest,2.3,No
2017/03/22,21:20,0.383,0.231,0.391,0.360,0.333,0.191,0.161,northwest,4.3,No
2017/03/22,21:30,0.384,0.232,0.392,0.361,0.332,0.190,0.161,northwest,5.4,No
2017/03/22,21:40,0.382,0.230,0.393,0.359,0.332,0.192,0.161,northwest,3.9,No
2017/03/22,21:50,0.382,0.232,0.390,0.362,0.332,0.191,0.162,west-northwest,3.6,No
2017/03/22,22:00,0.384,0.231,0.392,0.359,0.330,0.192,0.162,west,4.0,No
2017/03/22,22:10,0.384,0.231,0.391,0.360,0.332,0.191,0.161,west,3.3,No
2017/03/22,22:20,0.385,0.231,0.392,0.362,0.332,0.192,0.162,west-northwest,2.6,No
2017/03/22,22:30,0.383,0.231,0.392,0.359,0.332,0.191,0.161,west,2.4,No
2017/03/22,22:40,0.383,0.231,0.392,0.359,0.331,0.192,0.161,west-northwest,2.2,No
2017/03/22,22:50,0.385,0.231,0.392,0.361,0.331,0.190,0.163,north-northwest,3.9,No
2017/03/22,23:00,0.383,0.231,0.393,0.361,0.330,0.191,0.162,north-northwest,3.3,No
2017/03/22,23:10,0.381,0.231,0.392,0.360,0.330,0.191,0.162,northwest,3.5,No
2017/03/22,23:20,0.382,0.231,0.391,0.361,0.331,0.191,0.161,northwest,4.3,No
2017/03/22,23:30,0.385,0.231,0.392,0.361,0.330,0.191,0.161,west-northwest,3.1,No
2017/03/22,23:40,0.384,0.231,0.393,0.361,0.331,0.191,0.162,west,3.1,No
2017/03/22,23:50,0.383,0.232,0.392,0.359,0.331,0.191,0.161,west,3.3,No
